Weather Roundup
Issued by NWS Corpus Christi, TX

Home | Current Version | Previous Version | Text Only | Print | Product List | Glossary On
Versions: 1 2 3 4 5 6 7 8 9 10 11 12 13 14 15 16 17 18 19 20 21 22 23 24 25 26 27 28 29 30 31 32 33 34 35 36 37 38 39 40 41 42 43 44 45 46 47 48 49 50
000
ASUS44 KCRP 212310
HRRCRP

SOUTH TEXAS REGIONAL WEATHER ROUNDUP
NATIONAL WEATHER SERVICE CORPUS CHRISTI TX
600 PM CDT SAT APR 21 2018


TXZ229>244-220000-
...CORPUS CHRISTI AREA OBSERVATIONS...

CITY           SKY/WX    TMP DP  RH WIND       PRES   REMARKS
CORPUS CHRISTI CLOUDY    77  71  82 SE24      29.85S
NAS CORPUS CHR CLOUDY    78  32  18 SE18G30   29.85S
ROCKPORT       CLOUDY    74  69  85 SE17G24   29.85F
KINGSVILLE ARP CLOUDY    78  75  90 E5        29.84R VSB 1
KINGSVILLE NAS PTSUNNY   80  71  74 SE24G31   29.83S
ALICE          PTSUNNY   78  70  76 SE12      29.83S
$$

...VICTORIA AREA OBSERVATIONS...

CITY           SKY/WX    TMP DP  RH WIND       PRES   REMARKS
PORT LAVACA    CLOUDY    72  68  88 SE12G18   29.87F
VICTORIA       CLOUDY    72  68  87 SE16      29.88R
BEEVILLE       CLOUDY    73  70  92 SE12      29.85S
PLEASANTON     MOSUNNY   76  69  77 CALM      29.87S
SAN ANTONIO    MOSUNNY   79  65  62 W7        29.88F
$$

...LAREDO AREA OBSERVATIONS...

CITY           SKY/WX    TMP DP  RH WIND       PRES   REMARKS
LAREDO         SUNNY     84  64  50 VRB5      29.84F
COTULLA        SUNNY     82  65  56 VRB6      29.85S
DEL RIO        SUNNY     90  36  14 N7        29.83F
MCALLEN        PTSUNNY   87  73  62 S16       29.82R HX  94
HEBBRONVILLE   SUNNY     84  60  44 S5        29.84F
$$

...OTHER TEXAS OBSERVATIONS...

CITY           SKY/WX    TMP DP  RH WIND       PRES   REMARKS
BROWNSVILLE    PTSUNNY   82  71  69 SE22      29.85R
HOUSTON        LGT RAIN  71  68  90 SE16      29.92S FOG
COL. STATION   CLOUDY    69  68  96 SE6       29.90R FOG
AUSTIN         LGT RAIN  71  69  93 N6        29.88F FOG
WACO           CLOUDY    70  65  84 S12       29.89F
FORT WORTH     CLOUDY    63  63 100 E9        29.87F FOG
WICHITA FALLS  CLOUDY    55  50  83 NE9       30.00R
LUBBOCK        PTSUNNY   58  43  57 N18       30.08R
EL PASO        SUNNY     76  24  14 NW12G22   30.03F
$$

...MARINE OBSERVATIONS...

STATION/POSITION TIME  SKY/WX   TEMP    WIND        PRES    VSBY  WAVE   SWELL
                                AIR SEA DIR/SP/G                  HT/PER HT/PER
                 (UTC)          (F)     (DEG/KT/KT) (MB)    (MI)  (FT/S) (FT/S)
PORT ARANSAS     2300            73 71  130/ 19/ 21 1010.7F
BUOY 90 E PORT A 2250            74 73  110/ 17/ 21 1011.8F         5/ 6
BUOY 200 E PT IS 2250            75 75  120/ 10/ 12 1013.9F         4/ 5   3/ 5
BUOY 15 E GALVES 2150            71 70  120/ 14/ 16 1014.1          4/ 5
$$



USA.gov is the U.S. government's official web portal to all federal, state and local government web resources and services.